Regional Weather Roundup
Issued by NWS State College, PA

Home | Current Version | Previous Version | Text Only | Print | Product List | Glossary On
Versions: 1 2 3 4 5 6 7 8 9 10 11 12 13 14 15 16 17 18 19 20 21 22 23 24 25 26 27 28 29 30 31 32 33 34 35 36 37 38 39 40 41 42 43 44 45 46 47 48 49 50
000
ASUS41 KCTP 050410
RWRCTP

REGIONAL WEATHER ROUNDUP
NATIONAL WEATHER SERVICE STATE COLLEGE PA
1200 AM EDT THU MAY 05 2016

Note: "fair" indicates few or no clouds below 12,000 feet with no
significant weather and/or obstructions to visibility.

* = STATION THAT DOES NOT REPORT PRECIPITATION /E.G. RAIN...SNOW...ETC/
    THUNDER OR FOG.

PAZ002>004-007>009-013>016-020>023-029>032-050500-
WESTERN PENNSYLVANIA

CITY           SKY/WX    TMP DP  RH WIND       PRES   REMARKS
ERIE           CLOUDY    51  44  77 NE10      29.67S
MEADVILLE      CLOUDY    49  42  77 SW3       29.67S
FRANKLIN*      CLOUDY    48  45  87 CALM      29.71S
NEW CASTLE     CLOUDY    49  45  86 CALM      29.69F
BEAVER COUNTY  NOT AVBL
BUTLER*        CLOUDY    48  45  87 CALM      29.71S
PITTSBURGH INT CLOUDY    50  46  86 SW3       29.68S
PITTSBURGH     MOCLDY    49  45  86 W3        29.68S
INDIANA*       CLOUDY    52  50  93 CALM      29.72F
LATROBE        CLOUDY    50  50 100 SW8       29.69F
WASHINGTON CO* CLOUDY    48  45  87 CALM      29.69F
$$

PAZ004>006-010>012-017>019-024>028-033>037-041-042-045-046-049>053-050500-
CENTRAL PENNSYLVANIA

CITY           SKY/WX    TMP DP  RH WIND       PRES   REMARKS
BRADFORD       MOCLDY    45  41  86 CALM      29.70S
DUBOIS         LGT RAIN  49  46  90 CALM      29.68F
CLEARFIELD     CLOUDY    51  47  86 NE6       29.69F
JOHNSTOWN      LGT RAIN  49  42  77 CALM      29.68S
ALTOONA        CLOUDY    51  47  86 E6        29.69R
STATE COLLEGE  CLOUDY    51  48  90 E3        29.70S
WILLIAMSPORT   CLOUDY    52  48  86 E8        29.71S
SELINSGROVE    CLOUDY    52  47  83 CALM      29.72S
FT INDIANTOWN  CLOUDY    49  49  99 E3        29.73S
CAPITAL CITY   LGT RAIN  51  48  89 E9        29.72S FOG
HARRISBURG     CLOUDY    51  47  86 E6        29.72S
YORK           CLOUDY    50  47  89 E8        29.72R
$$

PAZ038>040-043-044-047-048-054-055-060>062-067>071-050500-
EASTERN PENNSYLVANIA

CITY           SKY/WX    TMP DP  RH WIND       PRES   REMARKS
SCRANTON       CLOUDY    49  44  83 NE3       29.73S
MOUNT POCONO   FOG       40  40 100 E8        29.71F VSB 3/4
ALLENTOWN      CLOUDY    50  46  86 NE9       29.73S
QUAKERTOWN*    CLOUDY    48  48 100 E3        29.74S
READING        CLOUDY    50  46  86 N3        29.72S
LANCASTER      CLOUDY    49  46  90 E5        29.73R
COATESVILLE    CLOUDY    48  48 100 MISG      29.74R
POTTSTOWN      CLOUDY    48  47  96 NE3       29.74S
BLUE BELL      CLOUDY    46  46 100 NE6       29.72S
DOYLESTOWN     CLOUDY    47  46  97 NE5       29.72S
WILLOW GROVE   NOT AVBL
NORTH PHILA    CLOUDY    51  48  89 NE9       29.74S
PHILADELPHIA   CLOUDY    51  46  83 E9        29.73S
$$




USA.gov is the U.S. government's official web portal to all federal, state and local government web resources and services.